Location: Tafessasset
(32.5899°N, 5.4824°W)
Time: 08:10:00
(UTC+00:00)

Cosmos 1484 Rocket - Pass Details

Date: 18 February 2020
Orbit: 506 x 559 km, 97.4° (Epoch: 08 April)

Event Time Altitude Azimuth Distance (km) Brightness Sun altitude
Rises 05:04:24 0° 14° (NNE) 2,721 6.6 -25.5°
Reaches altitude 10° 05:06:32 10° 16° (NNE) 1,830 5.7 -25.1°
Maximum altitude 05:10:29 72° 100° (E) 586 3.0 -24.2°
Enters shadow 05:11:01 61° 154° (SSE) 631 3.1 -24.1°
